Location: *
(47.1100°N, 9.5100°E)
Time: 13:54:59
(UTC+00:00)

Daily predictions for brighter satellites

Satellite Brightness Start Highest point End
(mag) Time Altitude Azimuth Time Altitude Azimuth Time Altitude Azimuth
Cosmos 1553 Rocket 4.0 18:06:00 10° S 18:12:03 81° E 18:18:10 10° N
Cosmos 2219 Rocket 3.7 18:06:51 10° SW 18:12:12 42° NW 18:17:34 10° NNE
STARLINK-1237 3.8 18:10:22 10° SW 18:14:18 51° SE 18:18:15 10° ENE
STARLINK-1083 3.6 18:10:55 10° WNW 18:15:00 81° NNE 18:19:05 10° ESE
STARLINK-1209 2.9 18:14:11 10° WSW 18:17:07 75° NNW 18:20:03 10° ENE
KORONAS-FOTON 3.8 18:13:28 10° N 18:17:20 85° ENE 18:21:07 10° S
Cosmos 1939 Rocket 3.8 18:13:39 10° S 18:17:32 52° W 18:21:23 10° NNW
Cosmos 1943 Rocket 3.3 18:13:11 10° N 18:17:48 26° NE 18:22:25 10° ESE
STARLINK-1202 3.7 18:15:04 10° SW 18:19:01 55° SE 18:23:00 10° ENE
ATLAS 2AS CENTAUR R/B 4.4 18:12:45 10° NW 18:19:08 26° NNE 18:25:11 10° ENE
STARLINK-1228 2.9 18:16:23 10° WSW 18:19:16 72° NNW 18:22:09 10° ENE
STARLINK-1125 3.6 18:15:29 10° WNW 18:19:36 85° NNE 18:23:40 10° ESE
STARLINK-1098 4.5 18:15:38 10° WNW 18:19:36 42° NNE 18:23:33 10° E
SL-14 R/B 3.9 18:17:33 10° N 18:21:23 38° ENE 18:25:09 10° SE
Cosmos 1980 4.0 18:17:43 10° SSW 18:23:24 78° WNW 18:29:08 10° NNE
SL-8 R/B 3.8 18:19:30 10° W 18:24:18 76° N 18:29:06 10° E
STARLINK-1109 3.6 18:20:14 10° WNW 18:24:20 90° NNE 18:28:25 10° ESE
STARLINK-1123 4.4 18:20:37 10° WNW 18:24:36 43° NNE 18:28:34 10° E
ERBS 3.8 18:22:45 10° W 18:25:55 36° NNW 18:29:05 10° NE
STARLINK-1246 3.6 18:22:02 10° SW 18:26:05 62° SE 18:30:08 10° ENE
Cosmos 2315 Rocket 4.4 18:22:31 10° SSE 18:28:21 41° E 18:34:15 10° NNE
Cosmos 1766 3.3 18:24:39 10° S 18:28:38 87° E 18:32:39 10° N
STARLINK-1091 3.6 18:25:03 10° WNW 18:29:09 85° SSW 18:33:14 10° ESE
STARLINK-1097 4.4 18:25:36 10° WNW 18:29:35 44° NNE 18:33:34 10° E
Orbus 7S? 4.3 18:27:00 10° WNW 18:29:41 28° SW 18:31:51 10° SSE
STARLINK-1066 3.6 18:28:22 10° WNW 18:31:27 49° SW 18:34:30 10° SE
STARLINK-67 3.6 18:29:01 10° W 18:31:29 40° NNW 18:33:57 10° NE
ADEOS Rocket 3.5 18:24:40 10° N 18:31:31 72° WNW 18:37:36 10° SSW
USA 234 3.8 18:25:52 10° ENE 18:31:51 37° SE 18:37:49 10° SSW
STARLINK-1201 3.1 18:28:37 10° WSW 18:31:52 80° NNW 18:35:10 10° ENE
STARLINK-1081 3.6 18:28:52 10° WNW 18:31:54 48° SW 18:34:55 10° SE
STARLINK-1070 3.6 18:29:19 10° WNW 18:32:21 48° SW 18:35:21 10° SE
STARLINK-1069 3.6 18:29:44 10° WNW 18:32:48 48° SW 18:35:51 10° SE
STARLINK-1085 3.7 18:30:11 10° WNW 18:33:14 47° SW 18:36:17 10° SE
STARLINK-1224 3.6 18:29:15 10° SW 18:33:17 69° SSE 18:37:20 10° ENE
Meteor 2-8 Rocket 4.4 18:27:17 10° S 18:33:22 67° E 18:39:27 10° NNE
STARLINK-1086 3.7 18:30:41 10° WNW 18:33:42 47° SW 18:36:42 10° SE
Cosmos 1626 2.3 18:30:19 10° N 18:33:55 48° ENE 18:37:31 10° SSE
STARLINK-1095 3.7 18:31:08 10° WNW 18:34:09 46° SW 18:37:09 10° SE
STARLINK-1077 3.7 18:31:35 10° WNW 18:34:35 46° SW 18:37:35 10° SE
STARLINK-1099 4.3 18:30:35 10° WNW 18:34:36 46° NNE 18:38:25 11° E
STARLINK-1203 3.5 18:30:56 10° SW 18:34:54 75° SSE 18:38:53 10° ENE
STARLINK-1075 3.7 18:32:02 10° WNW 18:35:02 45° SW 18:38:02 10° SE
H-2A R/B 2.1 18:29:55 10° SSE 18:35:10 64° ENE 18:40:17 10° N
STARLINK-1093 3.7 18:32:26 10° WNW 18:35:29 45° SW 18:38:30 10° SE
STARLINK-1074 3.8 18:32:54 10° WNW 18:35:56 45° SW 18:38:57 10° SE
HJ-1C 3.8 18:32:56 10° S 18:36:16 65° WSW 18:39:37 10° NNW
STARLINK-1087 3.7 18:33:23 10° WNW 18:36:23 44° SW 18:39:22 10° SE
STARLINK-1088 3.8 18:33:51 10° WNW 18:36:51 44° SW 18:39:49 10° SE
STARLINK-1115 3.8 18:34:16 10° WNW 18:37:18 44° SW 18:40:18 10° SE
SL-16 R/B 2.4 18:31:55 10° S 18:37:22 51° ESE 18:42:50 10° NE
STARLINK-1076 3.8 18:34:43 10° WNW 18:37:44 43° SW 18:40:45 10° SE
STARLINK-1225 3.5 18:33:52 10° SW 18:37:55 73° SSE 18:41:59 10° ENE
STARLINK-1092 3.8 18:35:10 10° WNW 18:38:11 43° SW 18:41:12 10° SE
STARLINK-1080 3.8 18:35:39 10° WNW 18:38:38 42° SW 18:41:36 10° SE
STARLINK-1090 3.8 18:36:06 10° WNW 18:39:05 42° SW 18:42:03 10° SE
STARLINK-1072 3.7 18:35:22 10° WNW 18:39:24 73° SSW 18:43:08 12° SE
STARLINK-1089 3.9 18:36:33 10° WNW 18:39:31 41° SW 18:42:29 10° SE
STARLINK-1104 4.2 18:35:35 10° WNW 18:39:36 47° NNE 18:43:12 13° E
SL-08 RB Rocket 4.2 18:35:36 10° SE 18:39:49 41° ENE 18:44:07 10° N
Cosmos 2333 Rocket 4.4 18:35:06 10° WSW 18:39:56 28° NW 18:44:47 10° N
STARLINK-1107 3.9 18:37:01 10° WNW 18:39:59 41° SW 18:42:57 10° SE
Resurs 01 Rocket 3.1 18:38:54 12° ESE 18:41:43 21° ENE 18:44:59 10° NNE
STARLINK-1230 3.5 18:38:35 10° SW 18:42:39 79° SSE 18:46:44 10° ENE
STARLINK-1096 3.7 18:39:44 10° WNW 18:43:45 68° SSW 18:47:19 13° SE
STARLINK-1144 4.2 18:40:34 10° WNW 18:44:37 49° NNE 18:47:59 14° E
STARLINK-1233 3.3 18:42:13 10° WSW 18:45:20 62° NNW 18:48:27 10° ENE
STARLINK-1212 3.3 18:42:41 10° WSW 18:45:47 61° NNW 18:48:53 10° ENE
FREGAT/IRIS 2.2 18:43:08 10° SSE 18:45:50 68° ENE 18:48:33 10° N
STARLINK-1105 3.3 18:43:08 10° WSW 18:46:13 61° NNW 18:49:21 10° ENE
STARLINK-1206 3.3 18:43:37 10° WSW 18:46:42 60° NNW 18:49:48 10° ENE
STARLINK-1247 3.4 18:44:04 10° WSW 18:47:08 60° NNW 18:50:14 10° ENE
STARLINK-1243 3.5 18:43:24 10° WSW 18:47:28 84° SSE 18:51:34 10° ENE
STARLINK-1227 3.4 18:44:29 10° WSW 18:47:34 60° NNW 18:50:43 10° ENE
Cosmos 1302 Rocket 4.0 18:42:27 10° NNW 18:47:44 68° ENE 18:52:59 10° SSE
STARLINK-1218 3.4 18:44:58 10° WSW 18:48:03 59° NNW 18:51:08 10° ENE
Abrixas rocket 3.5 18:46:06 10° SSW 18:48:18 19° SE 18:49:06 17° ESE
STARLINK-1226 3.4 18:45:25 10° WSW 18:48:30 59° NNW 18:51:36 10° ENE
STARLINK-1079 3.8 18:44:47 10° WNW 18:48:48 63° SW 18:52:11 14° SE
STARLINK-1254 3.4 18:45:50 10° WSW 18:48:56 58° NNW 18:52:03 10° ENE
STARLINK-1215 3.4 18:46:19 10° WSW 18:49:24 58° NNW 18:52:30 10° ENE
STARLINK-1103 4.1 18:45:32 10° WNW 18:49:36 51° NNE 18:52:45 16° E
STARLINK-1231 3.4 18:46:46 10° WSW 18:49:51 57° NNW 18:52:56 10° ENE
Cosmos 304 Rocket 4.3 18:45:39 10° NNW 18:50:23 61° WSW 18:55:04 10° S
Cosmos 1953 3.5 18:47:33 11° SE 18:50:27 23° E 18:53:35 10° NE
SeaSat 1 4.3 18:46:18 10° NNE 18:50:45 35° NW 18:55:11 10° WSW
STARLINK-1232 3.4 18:47:41 10° WSW 18:50:45 57° NNW 18:53:50 10° ENE
Cosmos 1709 Rocket 3.9 18:44:36 10° N 18:50:50 75° E 18:56:58 10° SSE
STARLINK-1217 3.4 18:48:09 10° WSW 18:51:13 56° NNW 18:54:18 10° ENE
STARLINK-1208 3.5 18:48:33 10° WSW 18:51:38 56° NNW 18:54:46 10° ENE
STARLINK-1229 3.5 18:49:02 10° WSW 18:52:06 56° NNW 18:55:11 10° ENE
STARLINK-1236 3.5 18:48:10 10° WSW 18:52:15 89° SSE 18:56:21 10° ENE
STARLINK-1271 3.5 18:49:29 10° WSW 18:52:33 55° NNW 18:55:39 10° ENE
STARLINK-1270 3.5 18:49:57 10° WSW 18:53:01 55° NNW 18:56:06 10° NE
STARLINK-1116 3.9 18:49:13 10° WNW 18:53:13 59° SW 18:56:26 15° SE
STARLINK-1154 3.5 18:50:24 10° WSW 18:53:29 54° NNW 18:56:33 10° NE
Cosmos 1269 Rocket 4.0 18:48:57 10° SSW 18:54:14 84° ESE 18:59:35 10° NNE
MONITOR-E 3.6 18:51:43 10° SSE 18:54:21 85° ENE 18:57:01 10° NNW
STARLINK-1197 3.5 18:51:18 10° WSW 18:54:23 54° NNW 18:57:27 10° NE
STARLINK-1101 4.0 18:50:31 10° WNW 18:54:36 54° NNE 18:57:32 18° E
STARLINK-1189 3.5 18:51:46 10° WSW 18:54:50 53° NNW 18:57:54 10° NE
STARLINK-1187 3.7 18:52:39 10° W 18:55:42 49° NNW 18:58:46 10° NE
STARLINK-1188 3.6 18:52:41 10° WSW 18:55:44 53° NNW 18:58:48 10° NE
STARLINK-1198 3.6 18:52:41 10° WSW 18:55:44 53° NNW 18:58:48 10° NE
STARLINK-1235 3.9 18:53:23 10° W 18:56:26 45° NNW 18:59:29 10° NE
STARLINK-1199 3.6 18:54:37 10° W 18:57:41 52° NNW 19:00:44 10° NE
STARLINK-1191 3.6 18:55:04 10° W 18:58:08 51° NNW 19:01:09 11° NE
STARLINK-1210 3.6 18:55:32 10° W 18:58:36 51° NNW 19:01:36 11° NE
STARLINK-1221 3.7 18:55:58 10° W 18:59:03 51° NNW 19:02:02 11° NE
STARLINK-1219 3.7 18:56:26 10° W 18:59:30 50° NNW 19:02:29 11° NE
STARLINK-1102 4.0 18:55:29 10° WNW 18:59:35 56° NNE 19:02:19 20° E
STARLINK-1222 3.7 18:56:54 10° W 18:59:57 50° NNW 19:02:54 11° NE
STARLINK-1211 3.7 18:57:21 10° W 19:00:25 50° NNW 19:03:20 11° NE
ISS -3.1 18:57:25 10° WNW 19:00:40 46° NNE 19:02:41 20° E
STARLINK-1214 3.7 18:57:48 10° W 19:00:51 49° NNW 19:03:46 11° NE
STARLINK-1245 3.7 18:58:16 10° W 19:01:19 49° NNW 19:04:10 11° NE
STARLINK-1238 3.7 18:58:40 10° W 19:01:43 49° NNW 19:04:37 11° NE
Cosmos 1455 Rocket 3.6 18:57:40 10° SSW 19:01:57 63° WNW 19:06:18 10° N
Cosmos 2251 Rocket 4.3 18:57:21 10° SSE 19:01:58 30° E 19:06:36 10° NE
STARLINK-1269 3.6 18:58:00 10° WSW 19:02:05 81° NNW 19:06:11 10° ENE
Cosmos 2297 3.9 18:56:29 10° NNW 19:02:11 77° WSW 19:07:52 10° SSE
STARLINK-1094 4.1 18:58:30 10° WNW 19:02:27 51° SW 19:05:21 17° SE
STARLINK-1205 3.7 18:59:36 10° W 19:02:38 48° NNW 19:05:27 12° NE
BREEZE-M DEB (TANK) 4.1 18:54:57 10° W 19:03:05 66° N 19:05:20 19° E
STARLINK-1204 3.7 19:00:05 10° W 19:03:07 48° NNW 19:05:54 12° NE
Cosmos 2074 Rocket 4.5 18:57:46 10° N 19:03:38 40° ENE 19:08:16 16° SE
Cosmos 2084 Rocket 4.0 19:00:02 10° NNW 19:04:21 46° NE 19:06:58 22° ESE
STARLINK-1111 3.9 19:00:28 10° WNW 19:04:35 59° NNE 19:07:06 22° E
STARLINK-1200 3.7 19:02:49 10° WSW 19:06:54 77° NNW 19:10:50 11° ENE
Cosmos 2237 Rocket 3.6 19:01:43 10° SW 19:07:02 42° NW 19:12:23 10° NNE
STARLINK-1117 4.3 19:03:22 10° WNW 19:07:16 47° SW 19:10:00 18° SSE
CZ-2C R/B 3.1 19:04:21 10° NNE 19:09:04 34° E 19:13:45 10° SSE
STARLINK-1073 3.8 19:05:28 10° WNW 19:09:34 62° NNE 19:11:53 24° E
Cosmos 1626 Rocket 3.5 19:05:16 10° N 19:09:42 86° E 19:14:04 10° S
STARLINK-1192 3.8 19:07:35 10° WSW 19:11:40 73° NNW 19:15:24 12° ENE
STARLINK-1078 4.4 19:07:50 10° WNW 19:11:42 44° SW 19:14:17 19° SSE
STARLINK-1121 3.8 19:10:25 10° WNW 19:14:33 65° NNE 19:16:39 27° E
ARGOS 3.4 19:10:11 10° S 19:15:35 72° WSW 19:21:00 10° NNW
Cosmos 292 Rocket 4.0 19:11:19 10° NNW 19:16:00 50° ENE 19:18:32 25° SE
STARLINK-1244 3.8 19:12:31 10° WSW 19:16:36 69° NNW 19:20:08 13° ENE
Cosmos 1602 Rocket 3.5 19:13:13 10° N 19:17:43 82° E 19:21:45 12° SSE
IRIDIUM 104 4.3 19:13:55 10° N 19:19:07 61° E 19:23:42 13° SSE
STARLINK-1106 3.7 19:15:23 10° WNW 19:19:31 69° NNE 19:21:25 30° E
STARLINK-1138 3.9 19:17:08 10° WSW 19:21:12 65° NNW 19:24:34 15° ENE
STARLINK-1234 4.3 19:19:33 10° W 19:22:16 32° NNW 19:24:03 17° NE
USA 186 3.4 19:19:43 10° SSW 19:22:57 38° W 19:26:09 10° NNW
MOS 1 Rocket 3.8 19:18:26 10° NNE 19:23:30 48° E 19:28:43 10° S
STARLINK-1112 3.6 19:20:23 10° WNW 19:24:32 73° NNE 19:26:14 34° ESE
STARLINK-1143 4.0 19:22:03 10° WSW 19:26:06 62° NNW 19:29:16 16° NE
MetOp-A 4.1 19:21:25 13° SSE 19:26:14 83° ENE 19:31:38 10° NNW
CZ-2C R/B 3.8 19:23:09 10° S 19:28:04 51° W 19:32:48 10° NNW
IRIDIUM 114 4.2 19:23:03 10° N 19:28:18 74° E 19:32:51 14° S
STARLINK-1128 3.6 19:25:22 10° WNW 19:29:32 78° NNE 19:31:01 38° ESE
Cosmos 1470 3.3 19:27:44 10° SSW 19:31:33 60° W 19:35:25 10° N
Cosmos 1437 3.6 19:29:11 10° N 19:31:25 31° NE 19:31:25 31° NE
STARLINK-1241 4.1 19:30:28 10° W 19:34:27 56° NNW 19:37:13 19° NE
STARLINK-1113 3.5 19:30:20 10° WNW 19:34:30 82° NNE 19:35:47 43° ESE
SPOT 3 Rocket 3.7 19:29:48 12° S 19:34:43 77° WSW 19:39:58 10° NNW
Cosmos 1825 Rocket 3.7 19:32:26 10° N 19:36:47 51° ENE 19:37:53 40° ESE
IRIDIUM 103 4.3 19:32:13 10° N 19:37:29 88° E 19:42:00 14° S
STARLINK-1239 4.2 19:35:25 10° W 19:39:24 54° NNW 19:41:56 21° NE
STARLINK-1119 3.5 19:35:19 10° WNW 19:39:29 87° NNE 19:40:34 48° ESE
Cosmos 2369 Rocket 2.2 19:34:54 10° NNW 19:40:38 73° ENE 19:43:14 33° SE
SJ-6B 4.3 19:37:14 10° SSW 19:41:03 38° W 19:44:55 10° NNW
Cosmos 1726 2.1 19:42:56 57° ESE 19:43:15 60° E 19:46:58 10° NNE
STARLINK-1240 4.3 19:40:10 10° W 19:44:08 52° NNW 19:46:29 22° NE
STARLINK-1114 3.5 19:40:20 10° WNW 19:44:30 88° SSW 19:45:24 54° ESE
Cosmos 1758 4.4 19:41:37 10° SSW 19:45:34 47° WNW 19:49:34 10° N
Aureole 2 Rocket 2.2 19:42:08 10° NNW 19:45:40 83° ENE 19:45:56 73° SE
Cosmos 1758 Rocket 3.4 19:42:12 10° N 19:46:35 76° E 19:47:54 44° SSE
Cosmos 2263 4.3 19:41:04 10° NNW 19:46:39 60° ENE 19:48:36 39° ESE
NOSS 3-3 (A) 3.9 19:43:02 10° SSW 19:48:41 53° ESE 19:55:00 10° NE
NOSS 3-3 (C) 4.0 19:43:10 10° SSW 19:48:47 53° ESE 19:55:06 10° NE
STARLINK-1216 4.3 19:44:57 10° W 19:48:54 49° NNW 19:51:02 24° NE
CZ-2C R/B 4.2 19:44:26 10° N 19:49:09 64° WNW 19:53:47 10° SSW
STARLINK-1130 (DARKSAT) 3.5 19:45:18 10° WNW 19:49:27 83° SSW 19:50:10 60° SE
Cosmos 1953 Rocket 3.7 19:48:43 10° N 19:53:04 51° ENE 19:53:22 50° E
Terra 3.6 19:53:53 18° NE 19:53:53 18° NE 19:56:45 10° NNE
STARLINK-1237 4.4 19:49:45 10° W 19:53:41 48° NNW 19:55:38 26° NE
STARLINK-1084 3.5 19:50:16 10° WNW 19:54:25 77° SSW 19:54:56 65° SSE
Cosmos 2184 Rocket 3.9 19:49:20 10° N 19:55:43 89° E 19:59:37 25° S
Spot 2 Rocket 3.6 19:55:41 46° ESE 19:56:49 57° ENE 20:01:50 10° N
STARLINK-1202 4.5 19:54:31 10° W 19:58:27 46° NNW 20:00:11 28° NE
STARLINK-1098 3.5 19:55:16 10° WNW 19:59:24 72° SSW 19:59:43 68° S
Cosmos 1606 Rocket 3.5 19:59:08 63° ESE 19:59:27 65° E 20:03:53 10° NNE
SPOT 1/Viking Rocket 4.0 20:00:50 41° E 20:01:21 42° ENE 20:06:15 10° N
Cosmos 1943 Rocket 2.5 19:56:30 10° NNW 20:01:58 62° WSW 20:04:35 31° S
Cosmos 1943 3.2 20:01:04 29° S 20:03:51 57° ESE 20:09:25 10° NE
STARLINK-1123 3.6 20:00:15 10° WNW 20:04:22 67° SW 20:04:30 66° SSW
Meteor 2-10 4.1 20:00:44 11° SSW 20:05:55 84° W 20:11:31 10° N
SL-8 R/B 3.5 20:02:11 10° WNW 20:07:00 87° S 20:07:34 69° ESE
STARLINK-1097 3.8 20:05:13 10° WNW 20:09:16 62° SW 20:09:16 62° SW
ATLAS 2AS CENTAUR R/B 3.2 20:04:20 10° NW 20:11:55 55° NE 20:14:21 39° E
STARLINK-1099 3.9 20:10:13 10° WNW 20:14:04 56° SW 20:14:04 56° SW
H-2A R/B 4.5 20:11:14 10° SW 20:14:59 19° W 20:18:42 10° NW
USA 234 3.3 20:08:40 10° NE 20:15:14 78° NNW 20:21:45 10° WSW
USA 245 3.9 20:15:17 64° SE 20:16:01 75° ENE 20:21:52 10° N
Cosmos 2154 Rocket 3.9 20:10:25 10° N 20:16:50 84° E 20:18:59 45° SSE
Resurs 01 Rocket 2.4 20:16:28 34° SSW 20:17:54 48° W 20:22:11 10° NNW
STARLINK-1104 4.2 20:15:13 10° WNW 20:18:51 51° WSW 20:18:51 51° WSW
Cosmos 1328 4.0 20:16:48 10° NNW 20:20:25 68° NW 20:20:25 68° NW
SL-16 R/B 4.0 20:16:45 10° WSW 20:21:44 31° NW 20:26:45 10° NNE
Cosmos 2228 3.0 20:22:39 77° WNW 20:22:39 77° WNW 20:26:57 10° N
Cosmos 967 Rocket 4.4 20:17:29 10° SSW 20:23:56 82° ESE 20:30:28 10° NE
STARLINK-1144 4.4 20:20:13 10° WNW 20:23:38 45° WSW 20:23:38 45° WSW
Cosmos 1953 4.1 20:23:10 10° SW 20:26:41 30° WNW 20:30:15 10° N
Cosmos 962 Rocket 4.3 20:24:53 10° N 20:31:06 69° E 20:31:43 64° ESE
Nadezhda 1 Rocket 4.1 20:29:47 28° SSW 20:33:27 78° W 20:39:53 10° N
SL-8 Rocket 4.2 20:30:52 10° N 20:37:01 53° ENE 20:37:01 53° ENE
ISS -1.4 20:34:16 10° WNW 20:35:39 22° W 20:35:39 22° W
Cosmos 2058 Rocket 3.9 20:42:37 45° N 20:42:37 45° N 20:45:48 10° N
SPOT 5 3.7 20:44:25 39° NNE 20:44:25 39° NNE 20:47:21 10° N
Cosmos 1603 4.1 20:37:35 10° SW 20:43:09 62° WNW 20:48:44 10° NNE
Cosmos 2366 rocket 4.4 20:38:51 10° N 20:44:18 46° ENE 20:44:18 46° ENE
IGS 5A 4.5 20:49:02 45° NW 20:49:02 45° NW 20:52:03 10° NNW
ERS-1 Rocket 3.1 20:48:38 66° N 20:48:38 66° N 20:53:00 10° NNW
Landsat 7 4.1 20:49:40 63° WNW 20:49:40 63° WNW 20:53:58 10° NNW
CZ-2C R/B 4.0 20:44:41 10° N 20:49:22 35° WNW 20:54:01 10° SW
Cosmos 1656 Rocket 4.0 20:56:35 10° NW 21:02:03 57° WSW 21:02:03 57° WSW
Aureole 1 Rocket 4.2 21:01:50 43° SSW 21:04:43 86° WNW 21:11:19 10° NNE
COSMOS 2455 3.2 21:09:52 10° NNW 21:15:09 60° NNE 21:15:09 60° NNE
Cosmos 2341 Rocket 4.4 21:16:10 10° NNW 21:22:22 57° W 21:22:43 57° WSW
Cosmos 2369 Rocket 4.2 21:20:07 10° NW 21:24:00 19° W 21:25:03 18° WSW
NOSS 3-4 (A) 3.9 21:23:21 10° NW 21:30:09 71° WSW 21:30:09 71° WSW
NOSS 3-4 (C) 3.8 21:23:27 10° NW 21:30:15 71° WSW 21:30:15 71° WSW
Terra 3.3 21:32:46 35° NNW 21:32:46 35° NNW 21:35:37 10° NNW
USA 234 4.3 21:51:44 10° NE 21:57:47 42° NNW 22:03:50 10° W
ATLAS 2AS CENTAUR R/B 3.6 21:55:46 10° NW 22:01:48 41° W 22:01:48 41° W
Cosmos 1697 Rocket 4.2 22:06:45 10° NNW 22:10:12 30° NNE 22:10:12 30° NNE
Mayak 1.7 22:14:56 10° N 22:15:31 14° N 22:15:31 14° N
Cosmos 1980 Rocket 3.9 22:32:20 10° NNW 22:35:28 27° NNE 22:35:28 27° NNE
CZ-4C R/B 3.8 22:31:53 10° NNW 22:38:19 40° NE 22:38:44 40° NE
ATLAS 5 CENTAUR R/B 4.4 23:20:05 16° NNE 23:20:05 16° NNE 23:21:28 10° NNE
USA 234 4.4 23:34:00 10° ENE 23:39:57 39° N 23:45:55 10° WNW
SL-16 R/B 3.9 23:52:44 32° NE 23:52:44 32° NE 23:57:41 10° N
